Location: Montague
(41.3030°N, 74.7940°W)
Time: 08:14:43
(UTC-04:00)

Daily predictions for brighter satellites

Satellite Brightness Start Highest point End
(mag) Time Altitude Azimuth Time Altitude Azimuth Time Altitude Azimuth
Cosmos 2346 Rocket 4.4 19:06:47 10° N 19:12:50 70° E 19:18:51 10° SSE
Cosmos 1953 3.8 19:12:23 10° SE 19:15:01 17° E 19:17:40 10° NE
SL-19 R/B 4.4 19:12:27 10° SSE 19:18:02 80° ENE 19:23:57 10° NNW
Cosmos 1452 Rocket 4.4 19:16:11 10° N 19:20:50 30° ENE 19:25:25 10° ESE
SeaSat 1 4.2 19:19:29 10° E 19:20:53 11° ESE 19:22:17 10° ESE
Cosmos 2219 Rocket 3.6 19:15:42 10° SW 19:21:00 41° WNW 19:26:21 10° N
Helios 1A 3.9 19:17:33 10° SE 19:21:09 29° ENE 19:24:46 10° N
CZ-2C R/B 4.4 19:18:33 10° SSW 19:23:04 34° W 19:27:28 10° NNW
METEOR-M 4.5 19:17:59 10° SE 19:23:04 45° ENE 19:28:09 10° N
COSMO-SKYMED 1 3.1 19:21:52 10° N 19:26:11 65° WNW 19:30:28 10° SSW
Cosmos 2278 Rocket 2.9 19:20:42 10° NNW 19:26:15 58° WSW 19:31:45 10° S
Cosmos 1805 4.4 19:23:11 10° SE 19:26:16 22° E 19:29:21 10° NE
NOSS 3-2 (A) 3.5 19:20:36 10° SSW 19:26:30 59° ESE 19:32:56 10° NE
Cosmos 1441 Rocket 4.0 19:22:57 10° NNW 19:26:37 54° W 19:30:15 10° S
Meteor 1-22 Rocket 4.1 19:21:25 10° S 19:26:44 66° E 19:31:58 10° NNE
Cosmos 1378 3.2 19:25:20 10° N 19:29:01 54° E 19:32:39 10° SSE
ALOS 3.3 19:27:17 10° ESE 19:31:04 25° ENE 19:34:52 10° NNE
Cosmos 2297 3.7 19:25:27 10° NNW 19:31:10 77° ENE 19:36:47 10° SSE
OAO 3 Rocket 4.1 19:27:14 10° SW 19:31:33 35° S 19:35:32 12° ESE
Meteor 1-28 Rocket 3.1 19:28:03 10° NNE 19:31:46 66° ESE 19:35:27 10° S
USA 238 DEB 4.4 19:25:14 10° SW 19:32:12 62° NW 19:39:11 10° NNE
USA 238 4.3 19:25:19 10° SW 19:32:18 62° NW 19:39:18 10° NNE
ATLAS CENTAUR R/B 3.5 19:27:38 10° SSW 19:32:18 63° ESE 19:46:46 10° NE
CZ-4B DEB 4.4 19:33:11 13° ESE 19:34:58 18° ENE 19:37:17 10° NNE
CZ-4C R/B 3.2 19:30:01 10° WSW 19:35:13 49° NW 19:41:05 10° NNE
Meteor 1-24 Rocket 3.7 19:31:06 10° N 19:36:48 90° E 19:42:15 10° S
Cosmos 1707 4.1 19:35:23 10° NNW 19:39:03 43° W 19:42:43 10° SSW
Cosmos 2034 Rocket 4.2 19:38:29 10° SSE 19:44:29 51° E 19:50:34 10° NNE
Cosmos 2369 Rocket 3.8 19:41:05 10° N 19:44:44 17° NE 19:47:05 14° ENE
SAR-Lupe-4 4.5 19:42:00 10° S 19:45:28 52° W 19:48:59 10° NNW
SJ-6B 3.2 19:42:53 10° S 19:46:49 68° W 19:50:52 10° NNW
Cosmos 1766 Rocket 3.7 19:42:34 10° N 19:46:52 52° E 19:51:06 10° SSE
Cosmos 1464 Rocket 3.9 19:40:46 10° S 19:46:59 72° E 19:53:10 10° NNE
Timation 1 Rocket 4.3 19:42:11 10° NNW 19:48:11 77° ENE 19:54:08 10° SSE
Cosmos 1603 4.2 19:43:25 10° SSE 19:48:33 36° ESE 19:53:45 10° NE
FREGAT/IRIS 2.8 19:45:40 10° S 19:48:45 75° WSW 19:51:51 10° NNW
Cosmos 1437 4.4 19:47:44 10° NNW 19:50:48 37° W 19:53:51 10° SSW
Cosmos 1758 3.4 19:52:20 10° S 19:56:19 53° E 20:00:19 10° NNE
NOSS 3-3 (A) 4.5 19:50:41 10° NNW 19:58:10 82° NE 20:06:09 10° SE
NOSS 3-3 (C) 4.5 19:50:47 10° NNW 19:58:16 81° NE 20:06:15 10° SE
Cosmos 2333 Rocket 4.3 19:55:29 10° WSW 20:00:25 28° NW 20:05:22 10° N
Spot 2 Rocket 3.5 19:56:50 10° SSE 20:01:53 89° WSW 20:06:57 10° NNW
Cosmos 1076 Rocket 3.6 19:59:28 10° N 20:03:48 81° W 20:08:09 10° S
FengYun 1-2 T 4.1 19:58:32 10° SSE 20:04:01 73° ENE 20:09:31 10° N
NOSS 3-2 (C) 3.4 19:58:01 10° SSW 20:04:05 85° ESE 20:10:44 10° NE
CENTAUR R/B 3.4 19:59:44 10° SSE 20:04:18 23° ESE 20:05:41 21° E
ASTEX 1 3.7 20:00:49 10° NNE 20:05:27 41° E 20:10:03 10° SSE
Helios 1B rocket 2.4 20:01:50 10° NNE 20:05:58 89° WNW 20:10:04 10° SSW
Cosmos-2242 2.9 20:04:20 10° S 20:08:38 67° E 20:13:01 10° NNE
SL-8 R/B 4.4 20:06:16 10° SSW 20:10:31 33° SE 20:11:41 29° ESE
Envisat 4.4 20:13:04 19° ENE 20:13:04 19° ENE 20:16:33 10° NNE
In-Cosmos 22 4.3 20:08:45 10° N 20:14:33 84° W 20:20:18 10° S
Cosmos 1674 3.2 20:13:17 10° N 20:16:55 37° ENE 20:16:58 37° E
Cosmos 1842 Rocket 3.9 20:18:06 32° SE 20:19:19 40° E 20:23:23 10° NNE
Meteor 1-21 Rocket 4.1 20:14:18 10° N 20:19:53 80° E 20:25:24 10° SSE
Atlas Centaur 2 4.4 20:14:05 10° WSW 20:20:56 28° SSW 20:26:10 14° SSE
Cosmos 1500 Rocket 3.9 20:16:52 10° N 20:21:06 43° ENE 20:21:56 38° ESE
Cosmos 1408 Rocket 4.1 20:17:19 10° NNW 20:21:37 58° W 20:25:51 10° S
ASTRO E2 4.4 20:20:00 10° SW 20:22:58 20° S 20:23:32 19° S
Cosmos 1346 3.2 20:25:31 10° N 20:28:07 65° N 20:28:07 65° N
ATLAS CENTAUR R/B 4.1 20:26:44 10° WNW 20:29:06 15° WSW 20:31:23 10° SW
Resurs 01 Rocket 2.9 20:28:01 10° S 20:32:14 41° W 20:36:27 10° NNW
Resurs 1-3 4.4 20:29:31 10° S 20:33:46 51° W 20:38:05 10° NNW
ATLAS 5 CENTAUR R/B 2.2 20:29:17 10° SW 20:34:01 65° NW 20:39:12 10° NNE
USA 215 3.6 20:32:06 10° NE 20:38:34 65° NW 20:45:00 10° WSW
CZ-2D R/B 3.5 20:43:00 39° S 20:44:19 67° W 20:48:13 10° NNW
SL-16 R/B 4.0 20:40:27 10° WSW 20:45:30 32° WNW 20:50:34 10° N
Cosmos 1743 Rocket 3.9 20:44:48 10° NNW 20:49:12 63° W 20:51:26 28° SSW
Cosmos 1953 4.1 20:47:37 10° SW 20:51:12 32° WNW 20:54:48 10° NNW
ERS-1 Rocket 3.3 20:54:53 47° NE 20:54:53 47° NE 20:59:09 10° N
Nadezhda 4 Rocket 4.4 20:50:54 10° NNW 20:57:06 63° W 21:03:12 10° S
Cosmos 1655 Rocket 4.2 20:51:09 10° N 20:57:04 48° ENE 20:57:04 48° ENE
SeaSat 1 2.3 20:54:00 10° NNE 20:58:58 90° WNW 21:03:55 10° SSW
BREEZE-M DEB (TANK) 3.4 20:50:37 10° WNW 21:01:36 60° N 21:02:28 52° NE
GP-B 3.2 20:57:29 10° N 21:01:22 67° N 21:01:22 67° N
H-2A R/B 4.0 21:01:10 33° SW 21:02:15 40° W 21:05:57 10° NNW
Cosmos 1092 Rocket 4.0 20:56:55 10° N 21:03:09 78° W 21:06:37 28° S
Cosmos 2142 Rocket 4.4 21:02:43 22° S 21:07:01 81° E 21:13:26 10° N
Cosmos 839 Rocket 4.1 20:59:58 10° NNW 21:07:43 67° NE 21:08:43 59° E
ALOS 3.8 21:04:17 11° SSW 21:08:21 33° W 21:12:35 10° NNW
OAO 3 Rocket 4.5 21:10:12 10° WSW 21:13:21 31° SW 21:13:21 31° SW
Cosmos 1634 Rocket 4.0 21:11:16 10° S 21:17:31 79° W 21:23:46 10° N
Cosmos 2026 Rocket 3.8 21:12:40 10° N 21:18:46 79° ENE 21:18:46 79° ENE
H-2A R/B 4.3 21:31:47 18° N 21:31:47 18° N 21:33:01 10° N
Cosmos 2369 Rocket 2.3 21:23:46 10° NNW 21:28:54 72° NW 21:28:54 72° NW
Cosmos 1943 Rocket 3.3 21:31:43 10° NNW 21:35:15 36° N 21:35:15 36° N
Envisat 4.3 21:53:17 37° NW 21:53:17 37° NW 21:56:36 10° NNW
CENTAUR R/B 3.0 21:48:12 10° SW 21:59:44 16° NNE 22:01:05 10° NNE
